Weather in Suzemka

Russia / Bryansk Oblast     52°18′57″N   34°04′47″E
temp.,
°C
wind,
m/s
gust,
m/s
humid.,
%
clouds,
%
prec.,
mm/h
press.,
hPa
HPBL,
m
28 november, sun
sun2800:00+5ssw5109561 0.0 1002271
03:00+3sw38945 0.0 1003173
06:00+1sw35910 0.0 1005102
09:00+1sw35907 0.0 100682
12:00+4ssw237414 0.0 1007183
15:00+5se3475100 0.0 1007126
18:00+4se3894100 0.0 1007157
21:00+4se51393100 0.0 1005296
29 november, mon
mon2900:00+4se51395100 0.0 1004290
03:00+5se51294100 0.0 1003297
06:00+6se4796100 0.1 1001157
09:00+6ese4997100 0.4 999212
12:00+6se41098100 0.2 997323
15:00+7se4798100 0.2 993311
18:00+7se41098100 0.4 990370
21:00+7ene3799100 2.9 984235
30 november, tue
tue3000:00+7ne1299100 2.3 97987
03:00+6wnw2599100 3.6 978190
06:00+1w122096100 3.6 982931
09:000wsw111994100 11.4 9881080
12:00+1wsw101684100 0.3 9901198
15:00+1sw9158799 0.3 9901192
18:000wsw8148294 0.2 9911031
21:00−1w91487100 0.6 9921084
1 december, wed
wed100:00−2w81595100 0.9 9931165
03:00−1w81385100 1.1 995937
06:00−2w71288100 0.1 996838
09:00−2w61084100 0.2 9981025
12:00−2wsw5989100 0.1 999812
15:00−1w3693100 0.4 999546
18:00−4wsw229768 0.1 100032
21:00−5wsw259755 0.1 100272
2 december, thu
thu200:00−5ssw369566 0.0 100296
03:00−1s51288100 0.0 1001483
06:000ssw71498100 0.6 999728
09:00+1ssw71599100 1.6 998727
12:00+3sw71594100 0.1 1000568
15:00+3sw71496100 0.1 1001601
18:00+3sw5139272 0.0 1002420
21:00+2sw5139384 0.0 1004338